Meteo Giornale » Osservazioni meteo Norvegia » Trondheim-Vaernes
ore: 16:50 - Osservazioni Meteo Trondheim-Vaernes
Lat. 63° 28' N Lon. 10° 56' E Alt. 1 metri s.l.m.
17 °C
Sereno
Temp. 24 Ore
6 °C
18 °C
Nord
5.5 Km/h
Dew point 10 °C
Umidità 63 %
Visibilità 10 Km
Il sole sorge alle ore 06:01
Il sole tramonta alle ore 20:31
| Data e Ora | Cielo e Fenomeni | T °C | DP °C | Um. % | Pres. hPa | Vis. km | Vento km/h | |
|---|---|---|---|---|---|---|---|---|
| Oggi h: 16:50 | Sereno | 17 | 10 | 63 | 1007 | 10 | N 5.5 | |
| Oggi h: 16:20 | Sereno | 18 | 11 | 63 | 1007 | 10 | O/SO 7.4 | |
| Oggi h: 15:50 | Poco Nuvoloso | 17 | 11 | 67 | 1008 | 10 | N 5.5 | |
| Oggi h: 15:20 | Poco Nuvoloso | 17 | 11 | 67 | 1008 | 10 | N 5.5 | |
| Oggi h: 14:50 | Poco Nuvoloso | 17 | 11 | 67 | 1008 | 10 | O 9.3 | |
| Oggi h: 14:20 | Poco Nuvoloso | 16 | 11 | 72 | 1008 | 10 | O 7.4 | |
| Oggi h: 13:50 | Poco Nuvoloso | 16 | 11 | 72 | 1008 | 10 | O/SO 9.3 | |
| Oggi h: 13:20 | Poco Nuvoloso | 15 | 10 | 72 | 1008 | 10 | O/SO 9.3 | |
| Oggi h: 12:50 | Sereno | 16 | 10 | 67 | 1008 | 10 | O/SO 7.4 | |
| Oggi h: 12:20 | Sereno | 15 | 9 | 67 | 1008 | 10 | N 5.5 | |
| Oggi h: 11:50 | Sereno | 15 | 9 | 67 | 1008 | 10 | N 3.7 | |
| Oggi h: 11:20 | Sereno | 14 | 8 | 67 | 1008 | 10 | N 0 | |
| Oggi h: 10:50 | Sereno | 13 | 8 | 71 | 1009 | 10 | N 3.7 | |
| Oggi h: 10:20 | Sereno | 12 | 8 | 76 | 1009 | 10 | E 7.4 | |
| Oggi h: 09:50 | Poco Nuvoloso | 10 | 8 | 87 | 1009 | 10 | E 7.4 | |
| Oggi h: 09:20 | Poco Nuvoloso | 9 | 7 | 87 | 1009 | 10 | E/SE 11.1 | |
| Oggi h: 08:50 | Poco Nuvoloso | 8 | 7 | 93 | 1008 | 10 | E 14.8 | |
| Oggi h: 08:20 | Poco Nuvoloso | 8 | 6 | 87 | 1008 | 10 | E 13 | |
| Oggi h: 07:50 | Nuvoloso | 7 | 6 | 93 | 1008 | 10 | E 13 | |
| Oggi h: 07:20 | Nuvoloso | 7 | 6 | 93 | 1008 | 10 | E/SE 14.8 | |
| Oggi h: 06:50 | Molto Nuvoloso | 6 | 6 | 100 | 1008 | 10 | E/SE 14.8 | |
| Oggi h: 06:20 | Molto Nuvoloso | 6 | 6 | 100 | 1008 | 10 | SE 16.7 | |
| Oggi h: 05:50 | Poco Nuvoloso | 6 | 6 | 100 | 1008 | 10 | SE 14.8 | |
| Oggi h: 05:20 | Poco Nuvoloso | 6 | 6 | 100 | 1008 | 10 | SE 14.8 | |
| Oggi h: 04:50 | Sereno | 6 | 6 | 100 | 1008 | 10 | SE 14.8 | |
| Oggi h: 04:20 | Sereno | 6 | 6 | 100 | 1008 | 10 | E/SE 14.8 | |
| Oggi h: 03:50 | Sereno | 7 | 6 | 93 | 1008 | 10 | E/SE 14.8 | |
| Oggi h: 03:20 | Sereno | 7 | 7 | 100 | 1008 | 10 | E/SE 14.8 | |
| Oggi h: 02:50 | Sereno | 7 | 7 | 100 | 1008 | 10 | E/SE 14.8 | |
| Oggi h: 02:20 | Sereno | 7 | 7 | 100 | 1008 | 10 | E/SE 16.7 | |
| Oggi h: 01:50 | Sereno | 7 | 7 | 100 | 1008 | 10 | E/SE 14.8 | |
| Oggi h: 01:20 | Sereno | 7 | 7 | 100 | 1008 | 10 | E/SE 16.7 | |
| Oggi h: 00:50 | Sereno | 7 | 7 | 100 | 1008 | 10 | E/SE 13 | |
| Oggi h: 00:20 | Sereno | 7 | 7 | 100 | 1008 | 10 | E/SE 13 | |
| Ieri h: 23:50 | Sereno | 7 | 7 | 100 | 1008 | 10 | E/SE 13 | |
| Ieri h: 23:20 | Sereno | 8 | 7 | 93 | 1008 | 10 | E/SE 11.1 | |
| Ieri h: 22:50 | Sereno | 8 | 8 | 100 | 1008 | 10 | E/SE 9.3 | |
| Ieri h: 22:20 | Sereno | 9 | 9 | 100 | 1008 | 10 | E/SE 13 | |
| Ieri h: 21:50 | Sereno | 9 | 8 | 93 | 1008 | 10 | E/SE 11.1 | |
| Ieri h: 21:20 | Sereno | 11 | 10 | 93 | 1008 | 10 | E 7.4 | |
| Ieri h: 20:50 | Sereno | 11 | 9 | 87 | 1008 | 10 | N 3.7 | |
| Ieri h: 20:20 | Sereno | 12 | 9 | 81 | 1007 | 10 | N 5.5 | |
| Ieri h: 19:50 | Poco Nuvoloso | 14 | 10 | 76 | 1007 | 10 | SE 7.4 | |
| Ieri h: 19:20 | Sereno | 14 | 9 | 71 | 1007 | 10 | SE 11.1 | |
| Ieri h: 18:50 | Sereno | 14 | 9 | 71 | 1007 | 10 | E 7.4 | |
| Ieri h: 18:20 | Nuvoloso | 15 | 10 | 72 | 1007 | 10 | N 5.5 | |
| Ieri h: 17:50 | Nuvoloso | 16 | 9 | 63 | 1007 | 10 | O 9.3 | |



